Regional Weather Roundup
Issued by NWS Green Bay, WI

Home | Current Version | Previous Version | Text Only | Print | Product List | Glossary On
Versions: 1 2 3 4 5 6 7 8 9 10 11 12 13 14 15 16 17 18 19 20 21 22 23 24 25 26 27 28 29 30 31 32 33 34 35 36 37 38 39 40 41 42 43 44 45 46 47 48 49 50
000
ASUS43 KGRB 221610
RWRGRB

NORTH-CENTRAL AND NORTHEAST WISCONSIN REGIONAL WEATHER ROUNDUP
NATIONAL WEATHER SERVICE GREEN BAY WI
1100 AM CDT TUE APR 22 2014

WIZ005-009-010>012-018-019-221700-
NORTH CENTRAL WISCONSIN

CITY           SKY/WX    TMP DP  RH WIND       PRES   REMARKS
IRONWOOD       CLOUDY    37  25  60 NW13      30.03R
MANITOWISH WTR CLOUDY    36  23  58 NW14G22   30.03R
ARBOR VITAE    CLOUDY    39  24  55 N16       30.02R
EAGLE RIVER    CLOUDY    36  22  55 N14       30.00R
LAND O LAKES   CLOUDY    36  24  63 N14       30.01R
RHINELANDER    CLOUDY    36  22  56 N12G22    30.01R
PHILLIPS       CLOUDY    40  24  54 N14       30.03R
ANTIGO         CLOUDY    37  26  64 NW16G25   29.99R
TOMAHAWK       PTSUNNY   40  23  49 N8        30.01S
MERRILL        PTSUNNY   43  25  49 N16G84    30.01R
$$

WIZ013-073-221700-
NORTHEAST WISCONSIN

CITY           SKY/WX    TMP DP  RH WIND       PRES   REMARKS
IRON MOUNTAIN  CLOUDY    40  24  53 NW21G26   29.94R
MARINETTE      MOSUNNY   45  27  49 N16G23    29.93S
OCONTO         PTSUNNY   46  29  50 N17G23    29.95S
$$

WIZ017-030-035>037-045-221700-
CENTRAL WISCONSIN

CITY           SKY/WX    TMP DP  RH WIND       PRES   REMARKS
MEDFORD        SUNNY     43  28  55 N10G17    30.01S
WAUSAU         MOSUNNY   43  24  47 N13       29.99S
MOSINEE        MOSUNNY   43  27  52 NW12      30.01F
MARSHFIELD     MOSUNNY   45  29  53 NW16      30.01F
WISC RAPIDS    PTSUNNY   45  27  49 N14       30.03S
STEVENS POINT  MOSUNNY   42  25  50 NW9       30.01S
WAUPACA        NOT AVBL
SHAWANO        CLOUDY    45  28  52 NW13G22   29.99R
CLINTONVILLE   PTSUNNY   45  28  53 NW16G22   29.98F
$$

WIZ038-039-048-051-221700-
FOX VALLEY

CITY           SKY/WX    TMP DP  RH WIND       PRES   REMARKS
NWS GREEN BAY  PTSUNNY   45  32  60 NW16      29.97S
APPLETON       PTSUNNY   45  28  53 NW17G24   29.98S
OSHKOSH          N/A    N/A N/A N/A MISG      29.97F
FOND DU LAC    MOSUNNY   49  30  48 N16       29.97F
$$

WIZ022-050-052-221700-
EAST CENTRAL WISCONSIN

CITY           SKY/WX    TMP DP  RH WIND       PRES   REMARKS
STURGEON BAY   CLOUDY    45  28  53 NW17G23   29.94S
MANITOWOC      MOSUNNY   47  31  53 NW22      29.94F
SHEBOYGAN      SUNNY     48  30  49 NW16G25   29.95S
$$

LMZ563-521-522-541>543-221700-
LAKESHORE

STATION/POSITION TIME  TEMP    WIND        PRES    VSBY  WAVE
                       AIR SEA DIR/SP/G                  HT/PER
                 (UTC) (F)     (DEG/KT/KT) (MB)    (MI)  (FT/S)
SHEBOYGAN LKSHOR 1600   46     340/ 16/ 19 1014.5F
KEWAUNEE LKSHORE 1600   45     330/ 13/ 19 1014.4R
TWO RIVERS CG    1500   45                   N/A       6   2
NORTHPORT PIER   1600   36     320/ 12/ 15 1013.2R
SISTER BAY LKSHO 1600   38     360/ 11/ 13   N/A
STURGEON BAY CG  1500   42     330/ 13     1013.8      6   0
MENOMINEE LKSHOR 1600   43     300/ 16/ 24 1014.1F
$$



USA.gov is the U.S. government's official web portal to all federal, state and local government web resources and services.